Yakima, WA

8:47 PM PST on February 08, 2016 (GMT -0800)
Yakima Air Term-McAllister

Weather History for KYKM - April, 2013

Change the Weather History Date:

Sunday, April 14, 2013

  Actual Average Record
Temperature  
Mean Temperature 41 °F 49 °F  
Max Temperature 58 °F 63 °F 88 °F (1947)
Min Temperature 24 °F 34 °F 23 °F (2001)
Degree Days  
Heating Degree Days 24 16  
Month to date heating degree days 192 244  
Since 1 July heating degree days 4750 5448  
Cooling Degree Days 0 0  
Month to date cooling degree days 0 0  
Year to date cooling degree days 0 0  
Moisture  
Dew Point 26 °F    
Average Humidity 55    
Maximum Humidity 81    
Minimum Humidity 28    
Precipitation  
Precipitation T in 0.02 in 0.45 in (1957)
Month to date precipitation 0.40 0.24  
Year to date precipitation 1.30 2.78  
Snow  
Snow 0.00 in 0.00 in 0.00 in (2002)
Month to date snowfall 0.0 0.0  
Year to date snowfall 1.1 8.6  
Since 1 July snowfall 15.3 21.6  
Snow Depth 0.00 in    
Sea Level Pressure  
Sea Level Pressure 29.92 in    
Wind  
Wind Speed 6 mph (WNW)    
Max Wind Speed 21 mph    
Max Gust Speed 26 mph    
Visibility 10 miles    
Events Rain    
T = Trace of Precipitation, MM = Missing Value Source: NWS Daily Summary

Daily Weather History Graph

Daily Weather History Graph

Search for Another Location

Airport or City:

Trip Planner

Search our weather history database for the weather conditions in past years. The results will help you decide how hot, cold, wet, or windy it might be!

Date:

Astronomy

Apr. 14, 2013 Rise Set
Actual Time 6:16 AM PDT 7:49 PM PDT
Civil Twilight 5:44 AM PDT 8:20 PM PDT
Nautical Twilight 5:06 AM PDT 8:59 PM PDT
Astronomical Twilight 4:25 AM PDT 9:41 PM PDT
Moon 8:46 AM PDT (4/14) No Moon Set
Length of Visible Light 14h 36m
Length of Day
13h 33m
Waxing Crescent, 18% of the Moon is Illuminated
Apr 14
Waxing Crescent
Apr 18
First Quarter
Apr 25
Full
May 2
Last Quarter
May 9
New

Hourly Weather History & Observations

Time (PDT) Temp. Windchill Dew Point Humidity Pressure Visibility Wind Dir Wind Speed Gust Speed Precip Events Conditions
12:53 AM 34.0 °F - 26.1 °F 73% 29.94 in 10.0 mi Calm Calm - N/A   Clear
1:53 AM 35.1 °F - 26.1 °F 70% 29.94 in 10.0 mi Calm Calm - N/A   Clear
2:53 AM 30.9 °F - 24.1 °F 76% 29.95 in 10.0 mi Calm Calm - N/A   Clear
3:53 AM 28.9 °F - 23.0 °F 78% 29.96 in 10.0 mi Calm Calm - N/A   Clear
4:53 AM 26.1 °F 21.9 °F 19.9 °F 78% 29.96 in 10.0 mi SW 3.5 mph - 0.00 in   Clear
5:53 AM 25.0 °F 19.3 °F 19.0 °F 78% 29.96 in 10.0 mi SW 4.6 mph - N/A   Clear
6:53 AM 27.0 °F 21.6 °F 21.0 °F 78% 29.98 in 10.0 mi WNW 4.6 mph - N/A   Clear
7:53 AM 36.0 °F 33.3 °F 28.0 °F 73% 29.97 in 10.0 mi West 3.5 mph - N/A   Clear
8:53 AM 43.0 °F - 28.0 °F 56% 29.95 in 10.0 mi Calm Calm - N/A   Clear
9:53 AM 48.0 °F - 28.9 °F 48% 29.94 in 10.0 mi Calm Calm - N/A   Clear
10:53 AM 52.0 °F - 25.0 °F 35% 29.93 in 10.0 mi West 8.1 mph - N/A   Clear
11:53 AM 52.0 °F - 24.1 °F 34% 29.91 in 10.0 mi Calm Calm - N/A   Clear
12:53 PM 57.2 °F - 24.8 °F 29% 29.88 in 10.0 mi East 9.2 mph - N/A   Mostly Cloudy
1:20 PM 48.2 °F - 28.4 °F 46% 29.89 in 10.0 mi North 19.6 mph 26.5 mph N/A   Overcast
1:53 PM 46.9 °F - 32.0 °F 56% 29.93 in 10.0 mi North 19.6 mph 24.2 mph 0.00 in Rain Light Rain
2:53 PM 48.9 °F - 32.0 °F 52% 29.92 in 10.0 mi North 10.4 mph - 0.00 in   Mostly Cloudy
3:53 PM 53.1 °F - 28.0 °F 38% 29.89 in 10.0 mi North 8.1 mph - N/A   Mostly Cloudy
4:53 PM 50.0 °F - 30.0 °F 46% 29.90 in 10.0 mi WNW 12.7 mph - N/A   Mostly Cloudy
5:53 PM 48.0 °F - 30.0 °F 50% 29.90 in 10.0 mi WNW 11.5 mph - N/A   Mostly Cloudy
6:53 PM 48.9 °F - 28.0 °F 44% 29.88 in 10.0 mi West 10.4 mph - N/A   Scattered Clouds
7:53 PM 42.1 °F 39.2 °F 28.9 °F 60% 29.89 in 10.0 mi West 4.6 mph - N/A   Scattered Clouds
8:53 PM 39.9 °F 36.7 °F 28.0 °F 63% 29.90 in 10.0 mi WSW 4.6 mph - N/A   Clear
9:53 PM 39.9 °F 36.7 °F 28.0 °F 63% 29.91 in 10.0 mi WSW 4.6 mph - N/A   Clear
10:53 PM 39.0 °F 35.7 °F 27.0 °F 62% 29.90 in 10.0 mi West 4.6 mph - N/A   Mostly Cloudy
11:53 PM 30.9 °F 25.2 °F 24.1 °F 76% 29.91 in 10.0 mi West 5.8 mph - N/A   Clear